Poplar Bluff, MO

10:45 PM CST on February 22, 2017 (GMT -0600)
Poplar Bluff Municipal

Weather History for KPOF - September, 2014

Change the Weather History Date:

Wednesday, September 10, 2014

  Actual Average Record
Temperature  
Mean Temperature 82 °F -  
Max Temperature 91 °F 85 °F 100 °F (1919)
Min Temperature 73 °F 61 °F 43 °F (1976)
Cooling Degree Days 17    
Growing Degree Days 32 (Base 50)    
Moisture  
Dew Point 70 °F    
Average Humidity 73    
Maximum Humidity 90    
Minimum Humidity 47    
Precipitation  
Precipitation 0.39 in - - ()
Sea Level Pressure  
Sea Level Pressure 29.81 in    
Wind  
Wind Speed 9 mph (SSW)    
Max Wind Speed 23 mph    
Max Gust Speed 32 mph    
Visibility 7 miles    
Events Rain , Thunderstorm    
Averages and records for this station are not official NWS values.
T = Trace of Precipitation, MM = Missing Value Source: NWS Daily Summary

Daily Weather History Graph

Daily Weather History Graph

Search for Another Location

Airport or City:

Trip Planner

Search our weather history database for the weather conditions in past years. The results will help you decide how hot, cold, wet, or windy it might be!

Date:

Astronomy

Sep. 10, 2014 Rise Set
Actual Time 6:39 AM CDT 7:16 PM CDT
Civil Twilight 6:13 AM CDT 7:42 PM CDT
Nautical Twilight 5:42 AM CDT 8:13 PM CDT
Astronomical Twilight 5:11 AM CDT 8:44 PM CDT
Moon 8:19 PM CDT (9/10) 8:23 AM CDT (9/10)
Length of Visible Light 13h 28m
Length of Day
12h 36m
Waning Gibbous, 96% of the Moon is Illuminated
Sep 10
Waning Gibbous
Sep 15
Last Quarter
Sep 24
New
Oct 1
First Quarter
Oct 8
Full

Hourly Weather History & Observations

Time (CDT) Temp. Heat Index Dew Point Humidity Pressure Visibility Wind Dir Wind Speed Gust Speed Precip Events Conditions
12:53 AM 75.9 °F - 68.0 °F 76% 29.83 in 10.0 mi South 5.8 mph - N/A   Clear
1:53 AM 75.9 °F - 68.0 °F 76% 29.80 in 10.0 mi South 4.6 mph - N/A   Clear
2:53 AM 77.0 °F - 68.0 °F 74% 29.79 in 10.0 mi South 8.1 mph - N/A   Clear
3:53 AM 75.9 °F - 69.1 °F 79% 29.80 in 10.0 mi SSW 4.6 mph - N/A   Clear
5:53 AM 75.9 °F - 70.0 °F 82% 29.78 in 10.0 mi South 6.9 mph - N/A   Clear
6:53 AM 75.9 °F - 70.0 °F 82% 29.79 in 8.0 mi South 9.2 mph - N/A   Clear
7:53 AM 77.0 °F - 70.0 °F 79% 29.79 in 7.0 mi South 8.1 mph - N/A   Clear
8:53 AM 80.1 °F 83.6 °F 71.1 °F 74% 29.81 in 8.0 mi SSW 13.8 mph 20.7 mph N/A   Clear
9:53 AM 84.0 °F 89.6 °F 72.0 °F 67% 29.81 in 9.0 mi SSW 12.7 mph 19.6 mph N/A   Partly Cloudy
10:53 AM 84.9 °F 90.1 °F 71.1 °F 63% 29.81 in 9.0 mi SSW 11.5 mph 23.0 mph N/A   Partly Cloudy
11:53 AM 87.1 °F 92.8 °F 71.1 °F 59% 29.80 in 10.0 mi SSW 15.0 mph 21.9 mph N/A   Mostly Cloudy
12:53 PM 87.1 °F 92.8 °F 71.1 °F 59% 29.80 in 7.0 mi SSW 15.0 mph 21.9 mph N/A   Partly Cloudy
1:53 PM 89.1 °F 95.0 °F 71.1 °F 55% 29.78 in 9.0 mi SSW 15.0 mph 21.9 mph N/A   Clear
2:53 PM 88.0 °F 92.9 °F 70.0 °F 55% 29.76 in 10.0 mi South 11.5 mph 20.7 mph N/A   Clear
3:53 PM 91.9 °F 96.9 °F 69.1 °F 47% 29.74 in 10.0 mi South 17.3 mph 26.5 mph N/A   Clear
4:53 PM 91.0 °F 96.6 °F 70.0 °F 50% 29.71 in 10.0 mi SSW 15.0 mph 23.0 mph N/A   Partly Cloudy
5:53 PM 89.1 °F 93.7 °F 69.1 °F 52% 29.72 in 10.0 mi South 10.4 mph - N/A   Scattered Clouds
6:53 PM 86.0 °F 90.1 °F 69.1 °F 57% 29.72 in 10.0 mi South 10.4 mph 18.4 mph N/A   Partly Cloudy
7:53 PM 84.0 °F 87.8 °F 69.1 °F 61% 29.75 in 10.0 mi SSW 8.1 mph - N/A   Mostly Cloudy
8:21 PM 82.9 °F 86.5 °F 69.1 °F 63% 29.78 in 10.0 mi SW 5.8 mph - N/A Thunderstorm Overcast
8:48 PM 82.4 °F 86.3 °F 69.8 °F 66% 29.82 in 4.0 mi West 23.0 mph 32.2 mph 0.00 in Rain , Thunderstorm Light Thunderstorms and Rain
8:51 PM 78.8 °F - 69.8 °F 74% 29.84 in 1.8 mi West 19.6 mph 32.2 mph 0.06 in Rain , Thunderstorm Heavy Thunderstorms and Rain
8:53 PM 75.9 °F - 70.0 °F 82% 29.83 in 1.5 mi West 20.7 mph 32.2 mph 0.12 in Rain , Thunderstorm Heavy Thunderstorms and Rain
8:58 PM 75.0 °F - 68.0 °F 79% 29.84 in 0.8 mi West 13.8 mph 29.9 mph 0.14 in Rain , Thunderstorm Heavy Thunderstorms and Rain
9:07 PM 73.9 °F - 69.1 °F 85% 29.82 in 1.5 mi West 4.6 mph - 0.44 in Rain , Thunderstorm Light Thunderstorms and Rain
9:10 PM 75.0 °F - 69.1 °F 82% 29.83 in 3.0 mi West 6.9 mph - 0.44 in Rain , Thunderstorm Light Thunderstorms and Rain
9:33 PM 73.9 °F - 70.0 °F 87% 29.84 in 10.0 mi WSW 3.5 mph - 0.44 in Rain , Thunderstorm Light Rain
10:07 PM 73.4 °F - 69.8 °F 88% 29.84 in 6.0 mi SSW 3.5 mph - N/A Rain , Thunderstorm Light Thunderstorms and Rain
10:36 PM 73.0 °F - 69.1 °F 87% 29.85 in 7.0 mi SSW 6.9 mph - 0.05 in Rain , Thunderstorm Light Rain
10:44 PM 73.0 °F - 69.1 °F 87% 29.84 in 6.0 mi SW 5.8 mph - 0.07 in Rain , Thunderstorm Thunderstorms and Rain
10:53 PM 73.0 °F - 69.1 °F 87% 29.83 in 7.0 mi SW 6.9 mph - 0.08 in Rain , Thunderstorm Light Thunderstorms and Rain
11:01 PM 73.0 °F - 69.1 °F 87% 29.85 in 6.0 mi SSW 5.8 mph - 0.01 in Rain , Thunderstorm Rain
11:30 PM 73.0 °F - 70.0 °F 90% 29.86 in 4.0 mi SSW 9.2 mph - 0.08 in Rain , Thunderstorm Thunderstorms and Rain
11:53 PM 73.0 °F - 69.1 °F 87% 29.86 in 3.0 mi Variable 3.5 mph - 0.19 in Rain , Thunderstorm Thunderstorms and Rain
11:59 PM 73.0 °F - 69.1 °F 87% 29.87 in 4.0 mi SSE 3.5 mph - 0.02 in Rain , Thunderstorm Rain